Weather History for Benton Harbor, MI

Change the Weather History Date:

Saturday, November 24, 2012

  Actual Average Record
Temperature  
Mean Temperature 30 °F -  
Max Temperature 32 °F 45 °F 65 °F (1966)
Min Temperature 28 °F 29 °F -1 °F (1950)
Degree Days  
Heating Degree Days 35    
Moisture  
Dew Point 22 °F    
Average Humidity 70    
Maximum Humidity 75    
Minimum Humidity 66    
Precipitation  
Precipitation 0.00 in - - ()
Sea Level Pressure  
Sea Level Pressure 30.16 in    
Wind  
Wind Speed 9 mph (West)    
Max Wind Speed 13 mph    
Max Gust Speed 29 mph    
Visibility 10 miles    
Events Snow    
Averages and records for this station are not official NWS values.
T = Trace of Precipitation, MM = Missing Value Source: NWS Daily Summary

Daily Weather History Graph

Daily Weather History Graph

Search for Another Location

Airport:

Trip Planner

Search our weather history database for the weather conditions in past years. The results will help you decide how hot, cold, wet, or windy it might be!

Date:

Astronomy

Nov. 24, 2012 Rise Set
Actual Time 7:47 AM EST 5:17 PM EST
Civil Twilight 7:16 AM EST 5:48 PM EST
Nautical Twilight 6:42 AM EST 6:22 PM EST
Astronomical Twilight 6:08 AM EST 6:56 PM EST
Moon 3:04 PM EST (11/24) 4:00 AM EST (11/24)
Length of Visible Light 10h 31m
Length of Day
9h 30m
Waxing Gibbous, 87% of the Moon is Illuminated
Nov 24
Waxing Gibbous
Nov 28
Full
Dec 6
Last Quarter
Dec 13
New
Dec 20
First Quarter

Hourly Weather History & Observations

Time (EST) Temp. Windchill Dew Point Humidity Pressure Visibility Wind Dir Wind Speed Gust Speed Precip Events Conditions
1:53 AM 32.0 °F 24.2 °F 23.0 °F 69% 30.15 in 10.0 mi NW 9.2 mph 21.9 mph N/A   Overcast
2:53 AM 32.0 °F 24.2 °F 24.1 °F 73% 30.16 in 10.0 mi NW 9.2 mph 23.0 mph N/A   Overcast
3:53 AM 30.9 °F 21.2 °F 21.9 °F 69% 30.17 in 10.0 mi NW 12.7 mph 28.8 mph N/A   Overcast
4:53 AM 30.9 °F 21.2 °F 23.0 °F 72% 30.17 in 10.0 mi NW 12.7 mph 21.9 mph N/A   Overcast
5:53 AM 30.9 °F 23.5 °F 21.9 °F 69% 30.18 in 10.0 mi WNW 8.1 mph 24.2 mph N/A   Overcast
6:53 AM 30.9 °F 22.2 °F 21.9 °F 69% 30.19 in 10.0 mi NW 10.4 mph 23.0 mph N/A   Overcast
7:53 AM 30.9 °F 23.5 °F 21.9 °F 69% 30.19 in 10.0 mi NW 8.1 mph 18.4 mph 0.00 in   Overcast
8:53 AM 32.0 °F 26.4 °F 23.0 °F 69% 30.20 in 10.0 mi Variable 5.8 mph - N/A   Overcast
9:53 AM 30.9 °F 24.3 °F 23.0 °F 72% 30.21 in 8.0 mi WNW 6.9 mph - 0.00 in Snow Light Snow
10:53 AM 32.0 °F 23.0 °F 21.9 °F 66% 30.22 in 10.0 mi WNW 11.5 mph 17.3 mph 0.00 in   Overcast
11:53 AM 32.0 °F 25.6 °F 21.9 °F 66% 30.21 in 10.0 mi WNW 6.9 mph - N/A   Overcast
12:53 PM 30.9 °F 22.2 °F 21.9 °F 69% 30.20 in 10.0 mi West 10.4 mph 18.4 mph N/A   Overcast
1:53 PM 30.9 °F 23.5 °F 23.0 °F 72% 30.19 in 10.0 mi WNW 8.1 mph - N/A   Overcast
2:53 PM 30.9 °F 24.3 °F 23.0 °F 72% 30.18 in 10.0 mi WNW 6.9 mph - N/A   Overcast
3:53 PM 30.9 °F 21.7 °F 23.0 °F 72% 30.17 in 10.0 mi West 11.5 mph - N/A   Overcast
4:53 PM 30.0 °F 22.4 °F 23.0 °F 75% 30.16 in 10.0 mi West 8.1 mph - N/A   Overcast
5:53 PM 30.0 °F 26.5 °F 21.0 °F 69% 30.14 in 10.0 mi WSW 3.5 mph - N/A   Overcast
6:53 PM 30.0 °F 22.4 °F 21.0 °F 69% 30.14 in 10.0 mi SSW 8.1 mph - N/A   Overcast
7:53 PM 28.9 °F 20.4 °F 19.0 °F 67% 30.12 in 10.0 mi South 9.2 mph - N/A   Overcast
8:08 PM 28.4 °F 21.2 °F 19.4 °F 69% 30.09 in 10.0 mi South 6.9 mph - N/A   Overcast
8:53 PM 28.9 °F 18.6 °F 19.0 °F 67% 30.09 in 10.0 mi South 12.7 mph 18.4 mph N/A   Overcast
9:53 PM 28.0 °F 21.7 °F 19.0 °F 69% 30.08 in 10.0 mi South 5.8 mph - N/A   Partly Cloudy
10:53 PM 28.0 °F 20.8 °F 19.0 °F 69% 30.07 in 10.0 mi South 6.9 mph - N/A   Overcast
11:53 PM 28.0 °F 19.3 °F 19.9 °F 72% 30.05 in 10.0 mi South 9.2 mph - N/A   Overcast